Regional Weather Roundup
Issued by NWS

Home | Current Version | Previous Version | Graphics & Text | Print | Product List | Glossary On
Versions: 1 2 3 4 5 6 7 8 9 10 11 12 13 14 15 16 17 18 19 20 21 22 23 24 25 26 27 28 29 30 31 32 33 34 35 36 37 38 39 40 41 42 43 44 45 46 47 48 49 50
000
ASUS43 KBIS 250310
RWRND

NORTH DAKOTA REGIONAL WEATHER ROUNDUP
NATIONAL WEATHER SERVICE BISMARCK ND
1000 PM CDT FRI MAR 24 2017

NOTE: "FAIR" INDICATES FEW OR NO CLOUDS BELOW 12,000 FEET WITH NO
SIGNIFICANT WEATHER AND/OR OBSTRUCTIONS TO VISIBILITY.


NDZ001>003-009>011-017-250400-
NORTHWEST NORTH DAKOTA

CITY           SKY/WX    TMP DP  RH WIND       PRES   REMARKS
WILLISTON      FAIR      44  32  62 SE15      29.96F
MINOT          FAIR      31  28  89 E14       30.12F
MINOT AFB      PTCLDY    30  28  90 SE15      30.11F WCI  19
$$

NDZ018>021-031>035-040>046-250400-
SOUTHWEST NORTH DAKOTA

CITY           SKY/WX    TMP DP  RH WIND       PRES   REMARKS
BISMARCK       FAIR      33  31  92 E8        30.15R
DICKINSON      FAIR      40  31  70 SE17      30.01F
GARRISON         N/A     32  29  88 SE13      30.11S
HETTINGER ARPT CLEAR     43  31  62 SE16G23   30.05S
$$

NDZ004>008-012>016-024-026-027-054-250400-
NORTHEAST NORTH DAKOTA

CITY           SKY/WX    TMP DP  RH WIND       PRES   REMARKS
GRAND FORKS    CLEAR     30  29  96 N6        30.24R
GRND FRKS AFB  CLEAR     27  26  95 NE6       30.23S
DEVILS LAKE    CLOUDY    30  26  85 SE8       30.21R
$$

NDZ022-023-025-028>030-036>039-047>053-250400-
SOUTHEAST NORTH DAKOTA

CITY           SKY/WX    TMP DP  RH WIND       PRES   REMARKS
FARGO          CLEAR     32  29  88 N7        30.20S
JAMESTOWN      CLOUDY    30  27  88 E7        30.19R
$$





USA.gov is the U.S. government's official web portal to all federal, state and local government web resources and services.